Location: Newark
(13.8117°N, 3.6025°W)
Time: 22:57:08
(UTC+00:00)

Explorer 11/Cluster Stage 4 - Pass Details

Date: 29 August 2019
Orbit: 467 x 1260 km, 28.8° (Epoch: 20 September)

Event Time Altitude Azimuth Distance (km) Brightness Sun altitude
Rises 06:35:52 0° 254° (WSW) 3,146 9.0 7.1°
Reaches altitude 10° 06:38:07 10° 259° (WSW) 2,337 8.4 7.7°
Maximum altitude 06:43:41 58° 338° (NNW) 1,061 7.3 9.0°
Drops below altitude 10° 06:50:38 10° 56° (NE) 2,904 10.8 10.7°
Sets 06:53:44 0° 60° (ENE) 3,970 11.5 11.4°
